Regional Weather Roundup
Issued by NWS Little Rock, AR

Home | Current Version | Previous Version | Text Only | Print | Product List | Glossary Off
Versions: 1 2 3 4 5 6 7 8 9 10 11 12 13 14 15 16 17 18 19 20 21 22 23 24 25 26 27 28 29 30 31 32 33 34 35 36 37 38 39 40 41 42 43 44 45 46 47 48 49 50

000
ASUS44 KLZK 290005
RWRLZK

WEATHER ROUNDUP FOR ARKANSAS
NATIONAL WEATHER SERVICE LITTLE ROCK AR
700 PM CDT THU MAY 28 2015

NOTE: "FAIR" INDICATES FEW OR NO CLOUDS BELOW 12,000 FEET WITH NO
SIGNIFICANT WEATHER AND/OR OBSTRUCTIONS TO VISIBILITY.

ARZ001-003-010-029-290100-
NORTHWEST ARKANSAS

CITY           SKY/WX    TMP DP  RH WIND       PRES   REMARKS
FAYETTEVILLE   MOSUNNY   74  67  78 S10       30.01S
6HR MIN TEMP:  69; 6HR MAX TEMP:  77; 6HR PCP:  0.11;

FORT SMITH     MOSUNNY   76  67  73 E8        29.99F
6HR MIN TEMP:  68; 6HR MAX TEMP:  79; 6HR PCP:  0.02;

HARRISON       CLOUDY    71  64  78 S10       30.03S
6HR MIN TEMP:  70; 6HR MAX TEMP:  76; 6HR PCP:  0.05;

BENTONVILLE    MOSUNNY   75  64  69 SW9       30.00F
6HR MIN TEMP:  70; 6HR MAX TEMP:  77; 6HR PCP:  0.47;

ROGERS         MOSUNNY   76  65  68 S10       30.01F
6HR MIN TEMP:  69; 6HR MAX TEMP:  78;

SILOAM SPGS    MOSUNNY   75  64  69 S10       30.00F
6HR MIN TEMP:  70; 6HR MAX TEMP:  77; 6HR PCP:  0.36;

HIGHFILL       MOSUNNY   75  66  73 SW9       29.99F
6HR MIN TEMP:  67; 6HR MAX TEMP:  76; 6HR PCP:  0.91;

SPRINGDALE     MOSUNNY   77  66  69 S12       30.03S
$$

ARZ004-005-016-290100-
NORTH CENTRAL ARKANSAS

CITY           SKY/WX    TMP DP  RH WIND       PRES   REMARKS
BATESVILLE     CLOUDY    72  66  83 CALM      30.02F
6HR MIN TEMP:  70; 6HR MAX TEMP:  82; 6HR PCP:  0.05;

FLIPPIN        CLOUDY    72  64  78 SE3       30.01R
6HR MIN TEMP:  72; 6HR MAX TEMP:  82;

MTN HOME       CLOUDY    70  64  81 S5        30.01F
6HR MIN TEMP:  70; 6HR MAX TEMP:  82; 6HR PCP:  0.40;

$$

ARZ040-041-290100-
WEST CENTRAL ARKANSAS

CITY           SKY/WX    TMP DP  RH WIND       PRES   REMARKS
MENA           PTSUNNY   72  70  94 NE3       30.03F
MOUNT IDA      CLOUDY    71  68  90 CALM      30.01F
6HR MIN TEMP:  66; 6HR MAX TEMP:  72; 6HR PCP:  0.16;

$$

ARZ009-017-025-026-028-290100-
NORTHEAST ARKANSAS

CITY           SKY/WX    TMP DP  RH WIND       PRES   REMARKS
CORNING        FAIR      77  68  73 SE8       30.04F
JONESBORO      PTSUNNY   78  68  71 SE6       30.03F
6HR MIN TEMP:  77; 6HR MAX TEMP:  81;

NEWPORT        PTSUNNY   80  68  67 S7        30.03F
6HR MIN TEMP:  80; 6HR MAX TEMP:  84;

WALNUT RIDGE   CLOUDY    79  66  65 SE10      30.01F
6HR MIN TEMP:  77; 6HR MAX TEMP:  81;

BLYTHEVILLE    MOSUNNY   80  68  66 SE7       30.06F
6HR MIN TEMP:  75; 6HR MAX TEMP:  81;

$$

ARZ022-023-033-042-044-290100-
CENTRAL ARKANSAS

CITY           SKY/WX    TMP DP  RH WIND       PRES   REMARKS
LITTLE ROCK    CLOUDY    73  65  75 SE6       30.03S
6HR MIN TEMP:  73; 6HR MAX TEMP:  84; 6HR PCP:  0.31;

N LITTLE ROCK  CLOUDY    71  67  86 SE5       30.03R
6HR MIN TEMP:  71; 6HR MAX TEMP:  83;

JACKSONVILLE   CLOUDY    71  67  87 NE2       30.02S
6HR MIN TEMP:  70; 6HR MAX TEMP:  85; 6HR PCP:  0.04;

SEARCY         CLOUDY    71  67  87 CALM      30.03F
6HR MIN TEMP:  70; 6HR MAX TEMP:  83; 6HR PCP:  0.05;

HOT SPRINGS    CLOUDY    70  66  87 SE3       30.04S
6HR MIN TEMP:  66; 6HR MAX TEMP:  83; 6HR PCP:  0.33;

RUSSELLVILLE   CLOUDY    71  68  90 VRB3      30.03R
6HR MIN TEMP:  67; 6HR MAX TEMP:  82; 6HR PCP:  0.51;

CLINTON        FAIR      70  68  94 CALM      30.05S
$$

ARZ036-290100-
EAST ARKANSAS

CITY           SKY/WX    TMP DP  RH WIND       PRES   REMARKS
WEST MEMPHIS   SUNNY     79  68  69 S6        30.05F
6HR MIN TEMP:  77; 6HR MAX TEMP:  82;

$$

ARZ050-053-066-070-073-290100-
SOUTHWEST ARKANSAS

CITY           SKY/WX    TMP DP  RH WIND       PRES   REMARKS
ARKADELPHIA    FAIR      71  71 100 VRB3      30.04S
6HR MIN TEMP:  68; 6HR MAX TEMP:  87; 6HR PCP:  0.38;

CAMDEN         CLOUDY    72  66  83 CALM      30.05S
TEXARKANA      PTSUNNY   77  69  76 E3        30.01F
6HR MIN TEMP:  72; 6HR MAX TEMP:  79; 6HR PCP: TRACE;

EL DORADO      CLOUDY    74  70  87 NE7       30.05R
6HR MIN TEMP:  69; 6HR MAX TEMP:  86;

DE QUEEN       PTSUNNY   76  68  76 E24G38    29.99S
6HR MIN TEMP:  73; 6HR MAX TEMP:  80;

$$

ARZ056-057-069-290100-
SOUTHEAST ARKANSAS

CITY           SKY/WX    TMP DP  RH WIND       PRES   REMARKS
PINE BLUFF     CLOUDY    73  68  84 S6        30.05R
6HR MIN TEMP:  71; 6HR MAX TEMP:  85; 6HR PCP:  0.14;

STUTTGART      CLOUDY    75  64  69 S6        30.04R
6HR MIN TEMP:  73; 6HR MAX TEMP:  84;

MONTICELLO     CLOUDY    72  71  97 CALM      30.05F
6HR MIN TEMP:  69; 6HR MAX TEMP:  84; 6HR PCP:  0.57;


$$





USA.gov is the U.S. government's official web portal to all federal, state and local government web resources and services.